[[{"header":{"parameterUnit":"m.s-1","parameterCategory":1,"la1":30.2991,"la2":30.254,"lo1":-89.0895,"lo2":-89.0444,"dy":0.0017,"dx":0.0017,"nx":28,"ny":28,"refTime":"2025-04-11T21:00:00:Z","depth":0,"parameterNumber":2,"parameterNumberName":"U-component_of_WINDS"},"data":[0,0,0,0,0,0,0,0,0,0,0,0,0,0,0,0,0,0,0,0,0,0,0,0,0,0,0,0,0,0,0,0,0,0,0,0,0,0,0,0,0,0,0,0,0,0,0,0,0,0,0,0,0,0,0,0,0,0,1.8556,1.8556,0,1.8605,1.8606,1.8606,1.8595,1.8594,1.8593,1.8592,1.8642,1.8644,1.8646,0,0,0,0,0,0,0,0,0,0,0,0,0,1.845,1.8452,1.8556,1.8556,1.8557,1.8605,1.8606,1.8606,1.8595,1.8594,1.8593,1.8592,1.8641,1.8644,1.8647,0,0,0,0,0,0,0,0,0,0,0,0,0,1.8498,1.8453,1.8555,1.8557,1.8558,1.8605,1.8606,1.8607,1.8596,1.8594,1.8593,1.8591,1.864,1.8644,1.8647,1.8695,0,0,1.8657,1.8658,0,0,0,0,0,0,0,0,1.8495,1.8502,1.8556,1.8557,1.8558,1.8593,1.8587,1.8636,1.8596,1.8581,1.8592,1.8591,1.8627,1.8631,1.8643,1.8698,1.87,1.8657,1.8659,1.8661,1.8662,0,0,0,0,0,0,0,1.8492,1.8499,1.8575,1.8557,1.8558,1.8555,1.856,1.8596,1.8611,1.8582,1.8582,1.8588,1.8627,1.864,1.8644,1.8701,1.8657,1.866,1.8662,1.8663,1.8798,1.8799,0,0,0,0,0,0,1.8488,1.8497,1.8574,1.8577,1.8522,1.8558,1.8564,1.8583,1.8611,1.8614,1.8589,1.8587,1.8635,1.8641,1.8646,1.8705,1.8661,1.8664,1.8666,1.8796,1.8798,1.88,0,0,0,0,0,0,1.8486,1.8495,1.8572,1.8537,1.8546,1.8561,1.8583,1.8585,1.8598,1.8616,1.8618,1.86,1.8634,1.8641,1.8683,1.8707,1.8665,1.8668,1.8794,1.8797,1.8799,1.8823,0,0,0,0,0,0,1.8483,1.8494,1.8513,1.8537,1.8548,1.8608,1.8584,1.8587,1.8604,1.8602,1.8627,1.8629,1.8634,1.8679,1.8687,1.871,1.8671,1.8792,1.8795,1.8798,1.882,1.8826,1.8831,0,0,0,0,0,1.8479,1.8517,1.8514,1.8523,1.8572,1.861,1.8616,1.8621,1.8606,1.8625,1.8636,1.8629,1.8703,1.8683,1.8692,1.8717,1.8791,1.8795,1.8798,1.8818,1.8825,1.8831,0,0,0,0,0,0,1.8495,1.852,1.8517,1.8564,1.8585,1.8608,1.8632,1.8628,1.8653,1.865,1.8654,1.866,1.8703,1.8714,1.8691,1.8766,1.8745,1.875,1.8757,1.8764,1.8769,1.8765,1.8674,0,0,0,0,0,1.8504,1.8533,1.8553,1.8593,1.8604,1.8616,1.8633,1.8635,1.8656,1.8665,1.8679,1.87,1.8728,1.8746,1.8773,1.8822,1.8827,1.8844,1.8849,1.8853,1.8858,1.8885,1.8893,1.8812,1.8812,1.8812,0,0,1.8522,1.854,1.8558,1.8597,1.8613,1.8643,1.8623,1.8655,1.8678,1.8669,1.871,1.8722,1.8745,1.8791,1.8812,1.8802,1.8882,1.8858,1.8861,1.8864,1.889,1.8898,1.8904,1.8814,1.8814,1.8813,0,0,1.8572,1.8588,1.8623,1.864,1.8666,1.8674,1.8682,1.8706,1.8713,1.8754,1.8749,1.8775,1.8823,1.8841,1.8856,1.8913,1.8907,1.8921,1.8949,1.8976,1.8982,1.8988,1.9008,1.9016,1.8926,1.8926,1.8926,0,1.8592,1.8637,1.8642,1.8675,1.8692,1.8687,1.8722,1.8738,1.8771,1.8783,1.8771,1.8832,1.8848,1.8898,1.8912,1.8924,1.8934,1.8918,1.8981,1.8987,1.8992,1.9012,1.902,1.8928,1.8927,1.8927,1.8927,0,1.8661,1.8692,1.8717,1.875,1.877,1.8804,1.8814,1.8834,1.8834,1.8843,1.8885,1.8904,1.8935,1.8947,1.8947,1.8997,1.899,1.898,1.8959,1.9001,1.902,1.9028,1.893,1.8929,1.8929,1.8929,0,0,1.8721,1.8756,1.8765,1.878,1.8808,1.8832,1.8866,1.8897,1.8914,1.8937,1.8966,1.9007,1.8998,1.9015,1.9017,1.904,1.9085,1.9027,1.9028,1.9037,1.9142,1.915,1.9158,1.9081,1.9083,1.9084,1.914,0,1.8773,1.8834,1.8839,1.8894,1.8923,1.8918,1.8948,1.8968,1.8978,1.9004,1.9015,1.9044,1.9029,1.904,1.9063,1.9075,1.9106,1.9071,1.9108,1.911,1.9103,1.9168,1.9176,1.9228,1.9147,1.9149,1.9149,0,1.8842,1.8868,1.8925,1.895,1.8962,1.8989,1.9018,1.9043,1.9066,1.9071,1.9091,1.909,1.9125,1.9103,1.9152,1.9128,1.9143,1.9152,1.9154,1.9157,1.9132,1.9174,1.9245,1.9253,1.9161,1.916,1.9159,0,1.8881,1.893,1.897,1.8983,1.9013,1.9032,1.9045,1.9066,1.9085,1.911,1.9122,1.915,1.9166,1.9189,1.9196,1.9179,1.9244,1.9222,1.925,1.925,1.9264,1.9263,1.9339,1.9274,1.9274,1.9273,1.9273,0,1.8939,1.8974,1.8988,1.9013,1.9053,1.9059,1.9098,1.911,1.913,1.9157,1.9155,1.918,1.9188,1.9215,1.9221,1.9261,1.9268,1.9273,1.9274,1.9274,1.9273,1.9284,1.9281,1.9276,1.9275,1.9275,1.9274,0,1.8989,1.9,1.9044,1.9068,1.9075,1.9104,1.9124,1.9149,1.9158,1.9193,1.9201,1.9216,1.9248,1.9258,1.9296,1.93,1.9346,1.9344,1.9339,1.9339,1.9366,1.9363,1.9451,1.9463,1.939,1.9391,1.9392,0,1.9025,1.9052,1.908,1.9098,1.9112,1.9142,1.9161,1.9168,1.9188,1.9217,1.9237,1.9269,1.9295,1.9346,1.936,1.9389,1.9388,1.9417,1.9392,1.9391,1.9389,1.9387,1.939,1.9421,1.9422,1.9423,1.9423,0,1.9088,1.9093,1.912,1.915,1.9173,1.9196,1.9219,1.9234,1.9245,1.9267,1.93,1.932,1.936,1.9391,1.9421,1.9434,1.9431,1.9431,1.9439,1.9438,1.9434,1.9437,1.9352,1.9429,1.9428,1.9428,1.9428,1.9427,1.9133,1.9157,1.9181,1.9212,1.923,1.9251,1.9275,1.9288,1.9316,1.9349,1.9351,1.9387,1.941,1.945,1.9465,1.9493,1.9484,1.9496,1.9499,1.9501,1.9504,1.943,1.9498,1.9498,1.9498,1.9498,1.9498,0,1.9196,1.9212,1.924,1.9272,1.9297,1.9292,1.9317,1.9338,1.9369,1.9391,1.9417,1.9455,1.9486,1.9502,1.9533,1.9552,1.9552,1.956,1.9559,1.9562,1.9509,1.95,1.956,1.956,1.956,1.956,1.956,1.956,1.9232,1.9273,1.9281,1.9331,1.9345,1.9381,1.9396,1.9415,1.9433,1.9476,1.9502,1.9513,1.9533,1.9565,1.9593,1.9597,1.9609,1.9618,1.9621,1.9572,1.9566,1.956,1.955,1.9621,1.9621,1.9672,1.9672,1.9673]},{"header":{"parameterUnit":"m.s-1","parameterCategory":1,"la1":30.2991,"la2":30.254,"lo1":-89.0895,"lo2":-89.0444,"dy":0.0017,"dx":0.0017,"nx":28,"ny":28,"refTime":"2025-04-11T21:00:00:Z","depth":0,"parameterNumber":3,"parameterNumberName":"V-component_of_WINDS"},"data":[0,0,0,0,0,0,0,0,0,0,0,0,0,0,0,0,0,0,0,0,0,0,0,0,0,0,0,0,0,0,0,0,0,0,0,0,0,0,0,0,0,0,0,0,0,0,0,0,0,0,0,0,0,0,0,0,0,0,-5.5803,-5.5803,0,-5.5864,-5.5865,-5.5866,-5.5811,-5.5809,-5.5807,-5.5805,-5.5867,-5.5871,-5.5874,0,0,0,0,0,0,0,0,0,0,0,0,0,-5.5638,-5.5641,-5.5803,-5.5804,-5.5804,-5.5864,-5.5865,-5.5866,-5.5812,-5.5809,-5.5806,-5.5804,-5.5866,-5.587,-5.5875,0,0,0,0,0,0,0,0,0,0,0,0,0,-5.5706,-5.5642,-5.5803,-5.5785,-5.5784,-5.5864,-5.5865,-5.5866,-5.5812,-5.5809,-5.5806,-5.5803,-5.5864,-5.587,-5.5875,-5.5977,0,0,-5.5893,-5.5895,0,0,0,0,0,0,0,0,-5.5702,-5.5712,-5.5786,-5.5786,-5.5785,-5.5827,-5.583,-5.5903,-5.5813,-5.5801,-5.5805,-5.5801,-5.5856,-5.5862,-5.5881,-5.598,-5.5982,-5.5893,-5.5896,-5.5899,-5.59,0,0,0,0,0,0,0,-5.5697,-5.5709,-5.5827,-5.5788,-5.5787,-5.5773,-5.5779,-5.5843,-5.5847,-5.5802,-5.5798,-5.5806,-5.5855,-5.5876,-5.5882,-5.5983,-5.5893,-5.5898,-5.5901,-5.5904,-5.6169,-5.6172,0,0,0,0,0,0,-5.5694,-5.5705,-5.5825,-5.5829,-5.5734,-5.5779,-5.5786,-5.5817,-5.5846,-5.5847,-5.5809,-5.5804,-5.5868,-5.5876,-5.5884,-5.6006,-5.5899,-5.5904,-5.5907,-5.6165,-5.6169,-5.6173,0,0,0,0,0,0,-5.5691,-5.5706,-5.5823,-5.5766,-5.578,-5.5785,-5.5821,-5.582,-5.584,-5.5851,-5.5852,-5.583,-5.5866,-5.5876,-5.5954,-5.6007,-5.5907,-5.5912,-5.6161,-5.6166,-5.6171,-5.6248,0,0,0,0,0,0,-5.5687,-5.5705,-5.5743,-5.5767,-5.5783,-5.5892,-5.5824,-5.5823,-5.585,-5.5844,-5.5871,-5.5872,-5.5864,-5.5946,-5.596,-5.6013,-5.5916,-5.6156,-5.6163,-5.617,-5.6241,-5.6256,-5.6268,0,0,0,0,0,-5.5681,-5.5762,-5.5746,-5.576,-5.5832,-5.5895,-5.5904,-5.5894,-5.5855,-5.5894,-5.5901,-5.5871,-5.5999,-5.5955,-5.597,-5.6025,-5.6152,-5.6161,-5.6169,-5.6235,-5.6253,-5.6268,0,0,0,0,0,0,-5.5744,-5.5765,-5.5747,-5.5839,-5.5866,-5.5886,-5.5935,-5.5913,-5.5951,-5.5943,-5.5928,-5.5935,-5.6017,-5.6029,-5.5979,-5.6125,-5.6069,-5.6081,-5.6115,-5.6132,-5.6145,-5.6141,-5.5921,0,0,0,0,0,-5.5769,-5.5819,-5.5834,-5.5914,-5.5928,-5.593,-5.5957,-5.5946,-5.5973,-5.5985,-5.5997,-5.6025,-5.6071,-5.6102,-5.6145,-5.6242,-5.6248,-5.6288,-5.6301,-5.6312,-5.6323,-5.6376,-5.6394,-5.6201,-5.62,-5.62,0,0,-5.582,-5.5838,-5.587,-5.5927,-5.5947,-5.5999,-5.5939,-5.5997,-5.6036,-5.5993,-5.6068,-5.6078,-5.6108,-5.6196,-5.6236,-5.6208,-5.6377,-5.6323,-5.6332,-5.6336,-5.6386,-5.6405,-5.6421,-5.6206,-5.6205,-5.6204,0,0,-5.5941,-5.5959,-5.6027,-5.6049,-5.6079,-5.608,-5.6096,-5.612,-5.6126,-5.62,-5.617,-5.6215,-5.6295,-5.6318,-5.634,-5.6469,-5.6444,-5.6484,-5.6555,-5.6607,-5.6622,-5.6636,-5.6682,-5.6699,-5.6494,-5.6494,-5.6494,0,-5.6001,-5.6078,-5.6065,-5.6126,-5.6152,-5.6116,-5.6185,-5.6206,-5.625,-5.6268,-5.6237,-5.6337,-5.6354,-5.6448,-5.648,-5.6498,-5.6517,-5.6481,-5.6621,-5.6634,-5.6647,-5.6691,-5.6709,-5.6499,-5.6498,-5.6498,-5.6497,0,-5.6151,-5.6205,-5.6257,-5.63,-5.6332,-5.6396,-5.6393,-5.6427,-5.6414,-5.6417,-5.6494,-5.6514,-5.656,-5.6582,-5.6569,-5.6674,-5.6656,-5.6623,-5.6567,-5.667,-5.6712,-5.6729,-5.6506,-5.6504,-5.6502,-5.6501,0,0,-5.6313,-5.6349,-5.6368,-5.6387,-5.6419,-5.6461,-5.6523,-5.657,-5.6599,-5.663,-5.6683,-5.6751,-5.6721,-5.6746,-5.6736,-5.6782,-5.6884,-5.6743,-5.6744,-5.6769,-5.7001,-5.7026,-5.7046,-5.6867,-5.687,-5.6873,-5.6999,0,-5.6435,-5.6545,-5.6536,-5.664,-5.669,-5.6657,-5.6712,-5.6737,-5.6742,-5.6785,-5.679,-5.684,-5.6796,-5.6811,-5.6855,-5.6862,-5.693,-5.6853,-5.6916,-5.6918,-5.691,-5.7067,-5.7094,-5.7212,-5.7015,-5.7018,-5.7019,0,-5.6593,-5.663,-5.6739,-5.6764,-5.6784,-5.6834,-5.6876,-5.6917,-5.6945,-5.6946,-5.6974,-5.6956,-5.702,-5.6962,-5.7049,-5.6997,-5.7022,-5.703,-5.7034,-5.704,-5.6976,-5.7078,-5.7249,-5.7267,-5.7045,-5.7043,-5.7041,0,-5.6701,-5.6778,-5.6854,-5.6871,-5.6902,-5.6937,-5.6951,-5.6976,-5.7005,-5.7041,-5.7059,-5.7103,-5.7127,-5.716,-5.7154,-5.7113,-5.7244,-5.7185,-5.7246,-5.7246,-5.7276,-5.7274,-5.7454,-5.7291,-5.7291,-5.729,-5.729,0,-5.6839,-5.6907,-5.6903,-5.695,-5.7025,-5.7013,-5.7088,-5.7098,-5.7121,-5.7169,-5.7142,-5.7188,-5.7177,-5.7222,-5.7218,-5.7291,-5.7302,-5.7304,-5.7302,-5.7307,-5.7307,-5.7323,-5.7315,-5.7295,-5.7294,-5.7293,-5.7292,0,-5.6973,-5.6973,-5.7053,-5.7075,-5.7082,-5.7137,-5.7156,-5.72,-5.7203,-5.7264,-5.7277,-5.7282,-5.7334,-5.7331,-5.739,-5.7387,-5.7477,-5.7466,-5.7468,-5.7466,-5.7527,-5.7522,-5.7724,-5.7751,-5.757,-5.7572,-5.7573,0,-5.7061,-5.7113,-5.7141,-5.7172,-5.7188,-5.7237,-5.7266,-5.7257,-5.7288,-5.7324,-5.7364,-5.7413,-5.7453,-5.7537,-5.7545,-5.759,-5.758,-5.7648,-5.7586,-5.7589,-5.7581,-5.7579,-5.7584,-5.766,-5.7662,-5.7663,-5.7665,0,-5.7219,-5.7216,-5.7259,-5.7303,-5.7339,-5.7372,-5.7403,-5.7429,-5.7423,-5.7459,-5.7512,-5.7543,-5.7603,-5.7652,-5.7695,-5.7709,-5.7687,-5.7684,-5.7701,-5.7706,-5.7706,-5.7708,-5.7502,-5.768,-5.7678,-5.7677,-5.7676,-5.7676,-5.7333,-5.7378,-5.7405,-5.7454,-5.7476,-5.7505,-5.7548,-5.7557,-5.7601,-5.7649,-5.764,-5.77,-5.7727,-5.7782,-5.78,-5.7846,-5.7822,-5.7846,-5.7852,-5.7858,-5.7866,-5.7698,-5.7854,-5.7854,-5.7853,-5.7853,-5.7853,0,-5.7489,-5.7505,-5.755,-5.7595,-5.7633,-5.7608,-5.7641,-5.7675,-5.7728,-5.7755,-5.7794,-5.7856,-5.7904,-5.7916,-5.7962,-5.7997,-5.7988,-5.8009,-5.8007,-5.8011,-5.7884,-5.7866,-5.8016,-5.8016,-5.8016,-5.8016,-5.8016,-5.8016,-5.7575,-5.765,-5.7651,-5.7736,-5.7751,-5.781,-5.7831,-5.7858,-5.7879,-5.7949,-5.7989,-5.7997,-5.8018,-5.8066,-5.8109,-5.8111,-5.8129,-5.8156,-5.8154,-5.8036,-5.802,-5.8004,-5.7986,-5.816,-5.816,-5.8277,-5.8278,-5.8279]}]]